Regional Weather Roundup
Issued by NWS

Home | Current Version | Previous Version | Graphics & Text | Print | Product List | Glossary Off
Versions: 1 2 3 4 5 6 7 8 9 10 11 12 13 14 15 16 17 18 19 20 21 22 23 24 25 26 27 28 29 30 31 32 33 34 35 36 37 38 39 40 41 42 43 44 45 46 47 48 49 50

000
ASUS43 KMKX 300400
RWRWI

WISCONSIN REGIONAL WEATHER ROUNDUP
NATIONAL WEATHER SERVICE MILWAUKEE/SULLIVAN WI
1100 PM CDT WED MAR 29 2017

NOTE: "FAIR" INDICATES FEW OR NO CLOUDS BELOW 12,000 FEET WITH NO
SIGNIFICANT WEATHER AND/OR OBSTRUCTIONS TO VISIBILITY.

WIZ001-002-006>008-014>016-023>028-300500-
NORTHWEST WISCONSIN

CITY           SKY/WX    TMP DP  RH WIND       PRES   REMARKS
SUPERIOR ARPT  CLOUDY    33  31  92 NE12      30.20F WCI  24
ASHLAND        PTCLDY    31  28  89 N6        30.18F WCI  25
HAYWARD        MOCLDY    38  30  73 N3        30.14F
SIREN          CLOUDY    38  32  76 NE6       30.13F WCI  34
CUMBERLAND     CLOUDY    41  32  70 SE7       30.13F
RICE LAKE      CLOUDY    42  35  78 SE10      30.14F
CHETEK         CLOUDY    41  36  81 SE5       30.14F
LADYSMITH      CLOUDY    42  31  64 SE7       30.17F
EAU CLAIRE     CLOUDY    40  37  89 E9        30.12F WCI  34
MENOMONIE      CLOUDY    40  38  92 E10       30.12F WCI  33
NEW RICHMOND   CLOUDY    41  35  79 SE8       30.12F
OSCEOLA        CLOUDY    42  37  80 SE8       30.15F
$$

WIZ003>005-009-010-017-018-300500-
NORTH CENTRAL WISCONSIN

CITY           SKY/WX    TMP DP  RH WIND       PRES   REMARKS
MANITOWISH WTR CLOUDY    39  28  63 CALM      30.16F
ARBOR VITAE    CLOUDY    40  29  64 SE6       30.16F
WOODRUFF       CLOUDY    40  29  64 SE6       30.16F
RHINELANDER    CLOUDY    39  27  62 SE10      30.17F WCI  32
EAGLE RIVER    MOCLDY    38  25  59 SE3       30.18S
LAND O LAKES   CLOUDY    37  26  64 SE5       30.20F WCI  34
PHILLIPS       CLOUDY    39  30  68 SE5       30.14F
TOMAHAWK       CLOUDY    37  28  68 SE5       30.18F WCI  34
MEDFORD        CLOUDY    36  32  86 E6        30.15F WCI  31
MERRILL        CLOUDY    38  31  76 SE12      30.19F WCI  30
$$

WIZ029-030-035-036-043>047-300500-
CENTRAL WISCONSIN

CITY           SKY/WX    TMP DP  RH WIND       PRES   REMARKS
WAUSAU         CLOUDY    34  31  88 E13       30.16F WCI  25
MOSINEE        FLURRIES  34  32  93 E10       30.18F WCI  26
MARSHFIELD     LGT RAIN  35  33  92 E14       30.14F WCI  26
STEVENS POINT  DRIZZLE   32  32 100 NE10      30.18F WCI  24
WAUPACA        FLURRIES  35  32  88 NE8       30.19F WCI  29
WAUTOMA        CLOUDY    36  31  82 NE12      30.16F WCI  28
WISC RAPIDS    LGT RAIN  35  35 100 E12       30.17F WCI  27
CAMP DOUGLAS   NOT AVBL
$$

WIZ011>013-019>022-031-037>040-048>050-300500-
NORTHEAST WISCONSIN

CITY           SKY/WX    TMP DP  RH WIND       PRES   REMARKS
ANTIGO         CLOUDY    35  26  72 E9        30.19F WCI  27
SHAWANO        LGT RAIN  36  32  84 NE7       30.22F WCI  31
OCONTO         CLOUDY    36  28  72 NE3       30.22F
STURGEON BAY   LGT RAIN  36  32  85 NE3       30.20F
GREEN BAY      CLOUDY    37  32  82 NE10      30.20F WCI  30
MANITOWOC      NOT AVBL
APPLETON       LGT SNOW N/A N/A N/A NE12      30.17F
CLINTONVILLE   FLURRIES  32  32 100 NE5       30.20F WCI  27
OSHKOSH        CLOUDY    37  31  78 E9        30.15F WCI  30
$$

WIZ032>034-041-042-053>061-300500-
SOUTHWEST WISCONSIN

CITY           SKY/WX    TMP DP  RH WIND       PRES   REMARKS
LA CROSSE      LGT RAIN  42  36  79 E14G23    30.09F
SPARTA         CLOUDY    39  36  88 E12G21    30.13F WCI  32
VIROQUA        CLOUDY    38  35  91 E16G23    30.07F WCI  28
BOSCOBEL       LGT RAIN  40  32  73 E8G23     30.07F WCI  34
PRAIRIE DU CHI LGT RAIN  39  38  97 NE15G22   30.03F WCI  31
PLATTEVILLE    CLOUDY    40  39  99 NE25G31   30.02F WCI  29
$$

WIZ056-057-062-063-064-067-068-300500-
SOUTH CENTRAL WISCONSIN

CITY           SKY/WX    TMP DP  RH WIND       PRES   REMARKS
REEDSBURG      LGT RAIN  38  32  78 E9G16     30.12S WCI  32
BARABOO/DELLS  CLOUDY    39  31  72 E9        30.12F WCI  33
LONE ROCK      NOT AVBL
MINERAL POINT  LGT RAIN  37  37 100 E18G29    30.05F WCI  27
MADISON        LGT RAIN  38  35  89 E17       30.11F WCI  28
MIDDLETON      CLOUDY    39  38  93 E13       30.11F WCI  32
WATERTOWN      LGT RAIN  37  37  99 NE9       30.13F WCI  30
MONROE         CLOUDY    37  36  93 NE17G24   30.05F WCI  28
JANESVILLE     CLOUDY    41  39  93 NE17      30.06F
$$

WIZ051-052-058>065-066-070>072-300500-
SOUTHEAST WISCONSIN

CITY           SKY/WX    TMP DP  RH WIND       PRES   REMARKS
MILWAUKEE      CLOUDY    38  35  89 N15       30.13S WCI  29
WAUKESHA       CLOUDY    36  34  93 NE13      30.14F WCI  27
MILWAUKEE/TIMM CLOUDY    36  32  87 NE9G16    30.16F WCI  29
RACINE         LGT RAIN  40  36  86 NE15      30.12F WCI  32
KENOSHA        CLOUDY    42  38  85 NE21G29   30.09F
FOND DU LAC    CLOUDY    38  29  70 NE14      30.15F WCI  30
SHEBOYGAN      CLOUDY    37  32  82 NE16      30.17F WCI  28
WEST BEND      LGT RAIN  36  34  93 NE6       30.17S WCI  31
JUNEAU         RAIN      37  32  81 NE7       30.16S WCI  31
$$

LSZ147-162-300500-
LAKE SUPERIOR

STATION/POSITION TIME  TEMP    WIND        PRES    WAVE
                       AIR SEA DIR/SP/G            HT/PER
                 (UTC) (F)     (DEG/KT/KT) (MB)    (FT/S)
DEVILS ISLAND    0300   35      60/ 16/ 18 1023.9F
PORT WING        0340   34      30/ 12/ 14 1022.4F
SAXON HARBOR     0330   31     200/  2/  2 1021.7F
$$

LMZ867-665-643>646-300500-
LAKE MICHIGAN

STATION/POSITION TIME  TEMP    WIND        PRES    WAVE
                       AIR SEA DIR/SP/G            HT/PER
                 (UTC) (F)     (DEG/KT/KT) (MB)    (FT/S)
CHAMBERS ISLAND  0340   33      10/  6/  8 1023.4F
NORTHPORT PIER   0340   36      70/  8/ 10 1023.7F
SISTER BAY       0306   37      80/  7/ 11   N/A
KEWAUNEE LAKESHO 0330   37      30/ 14/ 17 1022.6S
SHEBOYGAN LAKESH 0300   37     360/ 14/ 15 1022.9R
PORT WASHINGTON  0340   38      20/ 10/ 13 1022.7F
MILWAUKEE LAKESH 0340   37      20/ 14/ 16   N/A
KENOSHA   LAKESH 0300   40      40/ 19/ 21 1019.3
$$

TC  - TEMPERATURE IN CELSIUS
VSB - VISIBILITY IN STATUTE MILES
WCI - WIND CHILL INDEX
HX  - HEAT INDEX




USA.gov is the U.S. government's official web portal to all federal, state and local government web resources and services.